• în România
  • Lista ţărilor
  • Pe 7 zile
  • Temperatura apei
  • Hartă satelitară
  • Meteo pe hartă
  • Widget-uri
  • user-avatar
    Intrare

    Meteo pe oră la Birao

    Astăzi, 15 Decembrie, Vineri

    Timp Temperatura Precipitaţii Vânt Presiune Umiditate
    00:00 +25°C° 0 mm 3 m/s 718 mmHg 28%
    01:00 +25°C° 0 mm 3 m/s 718 mmHg 29%
    02:00 +23°C° 0 mm 2 m/s 718 mmHg 31%
    03:00 +22°C° 0 mm 3 m/s 718 mmHg 31%
    04:00 +22°C° 0 mm 3 m/s 718 mmHg 31%
    05:00 +21°C° 0 mm 3 m/s 718 mmHg 31%
    06:00 +22°C° 0 mm 4 m/s 719 mmHg 29%
    07:00 +23°C° 0 mm 4 m/s 719 mmHg 27%
    08:00 +23°C° 0 mm 5 m/s 720 mmHg 25%
    09:00 +27°C° 0 mm 5 m/s 720 mmHg 22%
    10:00 +30°C° 0 mm 5 m/s 720 mmHg 19%
    11:00 +34°C° 0 mm 5 m/s 720 mmHg 15%
    12:00 +35°C° 0 mm 4 m/s 719 mmHg 14%
    13:00 +37°C° 0 mm 4 m/s 719 mmHg 13%
    14:00 +38°C° 0 mm 3 m/s 718 mmHg 12%
    15:00 +38°C° 0 mm 3 m/s 717 mmHg 12%
    16:00 +38°C° 0 mm 3 m/s 717 mmHg 12%
    17:00 +37°C° 0 mm 3 m/s 716 mmHg 12%
    18:00 +35°C° 0 mm 3 m/s 716 mmHg 15%
    19:00 +31°C° 0 mm 3 m/s 716 mmHg 17%
    20:00 +28°C° 0 mm 2 m/s 717 mmHg 20%
    21:00 +28°C° 0 mm 3 m/s 717 mmHg 21%
    22:00 +27°C° 0 mm 3 m/s 717 mmHg 22%
    23:00 +26°C° 0 mm 3 m/s 717 mmHg 22%

    Mâine, 16 Decembrie, Sâmbătă

    Timp Temperatura Precipitaţii Vânt Presiune Umiditate
    00:00 +26°C° 0 mm 3 m/s 717 mmHg 22%
    01:00 +26°C° 0 mm 4 m/s 717 mmHg 22%
    02:00 +25°C° 0 mm 4 m/s 717 mmHg 21%
    03:00 +25°C° 0 mm 4 m/s 717 mmHg 21%
    04:00 +23°C° 0 mm 4 m/s 717 mmHg 20%
    05:00 +22°C° 0 mm 4 m/s 717 mmHg 20%
    06:00 +23°C° 0 mm 5 m/s 717 mmHg 19%
    07:00 +23°C° 0 mm 5 m/s 718 mmHg 18%
    08:00 +23°C° 0 mm 6 m/s 718 mmHg 17%
    09:00 +27°C° 0 mm 6 m/s 719 mmHg 15%
    10:00 +30°C° 0 mm 6 m/s 719 mmHg 13%
    11:00 +33°C° 0 mm 6 m/s 719 mmHg 11%
    12:00 +35°C° 0 mm 5 m/s 719 mmHg 10%
    13:00 +37°C° 0 mm 5 m/s 718 mmHg 9%
    14:00 +38°C° 0 mm 4 m/s 717 mmHg 8%
    15:00 +38°C° 0 mm 4 m/s 717 mmHg 8%
    16:00 +38°C° 0 mm 4 m/s 716 mmHg 8%
    17:00 +37°C° 0 mm 3 m/s 716 mmHg 8%
    18:00 +34°C° 0 mm 3 m/s 716 mmHg 10%
    19:00 +31°C° 0 mm 3 m/s 716 mmHg 12%
    20:00 +28°C° 0 mm 3 m/s 717 mmHg 14%
    21:00 +27°C° 0 mm 3 m/s 717 mmHg 15%
    22:00 +26°C° 0 mm 3 m/s 717 mmHg 16%
    23:00 +25°C° 0 mm 3 m/s 717 mmHg 17%

    Poimâine, 17 Decembrie, Duminică

    Timp Temperatura Precipitaţii Vânt Presiune Umiditate
    00:00 +24°C° 0 mm 3 m/s 717 mmHg 17%
    01:00 +24°C° 0 mm 3 m/s 717 mmHg 18%
    02:00 +24°C° 0 mm 3 m/s 716 mmHg 18%
    03:00 +22°C° 0 mm 3 m/s 716 mmHg 19%
    04:00 +22°C° 0 mm 4 m/s 716 mmHg 20%
    05:00 +21°C° 0 mm 4 m/s 716 mmHg 21%
    06:00 +22°C° 0 mm 4 m/s 717 mmHg 21%
    07:00 +22°C° 0 mm 5 m/s 717 mmHg 20%
    08:00 +23°C° 0 mm 5 m/s 718 mmHg 20%
    09:00 +27°C° 0 mm 5 m/s 718 mmHg 18%
    10:00 +30°C° 0 mm 6 m/s 718 mmHg 15%
    11:00 +34°C° 0 mm 6 m/s 719 mmHg 13%
    12:00 +36°C° 0 mm 5 m/s 718 mmHg 11%
    13:00 +39°C° 0 mm 5 m/s 717 mmHg 9%
    14:00 +40°C° 0 mm 4 m/s 716 mmHg 8%
    15:00 +40°C° 0 mm 4 m/s 716 mmHg 8%
    16:00 +39°C° 0 mm 3 m/s 715 mmHg 7%
    17:00 +39°C° 0 mm 3 m/s 715 mmHg 7%
    18:00 +35°C° 0 mm 3 m/s 715 mmHg 9%
    19:00 +31°C° 0 mm 3 m/s 716 mmHg 11%
    20:00 +28°C° 0 mm 3 m/s 716 mmHg 13%
    21:00 +28°C° 0 mm 3 m/s 716 mmHg 14%
    22:00 +27°C° 0 mm 3 m/s 717 mmHg 15%
    23:00 +26°C° 0 mm 3 m/s 717 mmHg 17%

    18 Decembrie, Luni

    Timp Temperatura Precipitaţii Vânt Presiune Umiditate
    00:00 +26°C° 0 mm 3 m/s 717 mmHg 18%
    01:00 +25°C° 0 mm 3 m/s 716 mmHg 19%
    02:00 +24°C° 0 mm 3 m/s 716 mmHg 20%
    03:00 +24°C° 0 mm 3 m/s 716 mmHg 21%
    04:00 +24°C° 0 mm 3 m/s 716 mmHg 22%
    05:00 +22°C° 0 mm 3 m/s 716 mmHg 23%
    06:00 +23°C° 0 mm 4 m/s 717 mmHg 23%
    07:00 +25°C° 0 mm 4 m/s 717 mmHg 23%
    08:00 +26°C° 0 mm 5 m/s 718 mmHg 23%
    09:00 +29°C° 0 mm 5 m/s 718 mmHg 20%
    10:00 +33°C° 0 mm 5 m/s 718 mmHg 17%
    11:00 +36°C° 0 mm 5 m/s 718 mmHg 14%
    12:00 +37°C° 0 mm 4 m/s 718 mmHg 12%
    13:00 +40°C° 0 mm 4 m/s 717 mmHg 10%
    14:00 +40°C° 0 mm 3 m/s 716 mmHg 8%
    15:00 +40°C° 0 mm 3 m/s 715 mmHg 9%
    16:00 +40°C° 0 mm 2 m/s 715 mmHg 9%
    17:00 +39°C° 0 mm 2 m/s 714 mmHg 9%
    18:00 +36°C° 0 mm 2 m/s 715 mmHg 11%
    19:00 +34°C° 0 mm 2 m/s 715 mmHg 13%
    20:00 +30°C° 0 mm 2 m/s 715 mmHg 15%
    21:00 +29°C° 0 mm 2 m/s 715 mmHg 15%
    22:00 +28°C° 0 mm 2 m/s 715 mmHg 16%
    23:00 +27°C° 0 mm 3 m/s 716 mmHg 17%

    19 Decembrie, Marţi

    Timp Temperatura Precipitaţii Vânt Presiune Umiditate
    00:00 +27°C° 0 mm 3 m/s 715 mmHg 18%
    01:00 +26°C° 0 mm 3 m/s 715 mmHg 18%
    02:00 +25°C° 0 mm 3 m/s 715 mmHg 19%
    03:00 +25°C° 0 mm 3 m/s 715 mmHg 20%
    04:00 +25°C° 0 mm 3 m/s 715 mmHg 20%
    05:00 +24°C° 0 mm 3 m/s 715 mmHg 21%
    06:00 +25°C° 0 mm 3 m/s 716 mmHg 21%
    07:00 +26°C° 0 mm 4 m/s 717 mmHg 20%
    08:00 +27°C° 0 mm 4 m/s 717 mmHg 20%
    09:00 +30°C° 0 mm 4 m/s 717 mmHg 17%
    10:00 +34°C° 0 mm 4 m/s 718 mmHg 14%
    11:00 +37°C° 0 mm 4 m/s 718 mmHg 11%
    12:00 +40°C° 0 mm 4 m/s 717 mmHg 10%
    13:00 +41°C° 0 mm 4 m/s 716 mmHg 10%
    14:00 +42°C° 0 mm 3 m/s 715 mmHg 9%
    15:00 +42°C° 0 mm 3 m/s 715 mmHg 9%
    16:00 +42°C° 0 mm 3 m/s 715 mmHg 10%
    17:00 +40°C° 0 mm 3 m/s 714 mmHg 10%
    18:00 +38°C° 0 mm 3 m/s 715 mmHg 12%
    19:00 +35°C° 0 mm 2 m/s 715 mmHg 14%
    20:00 +31°C° 0 mm 2 m/s 715 mmHg 16%
    21:00 +30°C° 0 mm 2 m/s 715 mmHg 17%
    22:00 +30°C° 0 mm 3 m/s 715 mmHg 18%
    23:00 +29°C° 0 mm 3 m/s 716 mmHg 19%

    20 Decembrie, Miercuri

    Timp Temperatura Precipitaţii Vânt Presiune Umiditate
    00:00 +28°C° 0 mm 3 m/s 715 mmHg 19%
    01:00 +28°C° 0 mm 3 m/s 715 mmHg 20%
    02:00 +27°C° 0 mm 3 m/s 715 mmHg 21%
    03:00 +27°C° 0 mm 3 m/s 715 mmHg 21%
    04:00 +26°C° 0 mm 3 m/s 715 mmHg 21%
    05:00 +26°C° 0 mm 3 m/s 715 mmHg 21%
    06:00 +26°C° 0 mm 3 m/s 716 mmHg 19%
    07:00 +27°C° 0 mm 4 m/s 716 mmHg 18%
    08:00 +28°C° 0 mm 4 m/s 717 mmHg 16%
    09:00 +32°C° 0 mm 4 m/s 717 mmHg 14%
    10:00 +35°C° 0 mm 5 m/s 717 mmHg 12%
    11:00 +39°C° 0 mm 5 m/s 718 mmHg 10%
    12:00 +40°C° 0 mm 5 m/s 717 mmHg 10%
    13:00 +42°C° 0 mm 4 m/s 716 mmHg 10%
    14:00 +43°C° 0 mm 4 m/s 715 mmHg 10%
    15:00 +42°C° 0 mm 3 m/s 715 mmHg 10%
    16:00 +42°C° 0 mm 3 m/s 715 mmHg 10%
    17:00 +42°C° 0 mm 3 m/s 715 mmHg 10%
    18:00 +38°C° 0 mm 3 m/s 715 mmHg 12%
    19:00 +35°C° 0 mm 3 m/s 715 mmHg 14%
    20:00 +33°C° 0 mm 3 m/s 715 mmHg 17%
    21:00 +31°C° 0 mm 3 m/s 716 mmHg 17%
    22:00 +31°C° 0 mm 3 m/s 716 mmHg 17%
    23:00 +30°C° 0 mm 3 m/s 716 mmHg 18%
    Arată mai mult